Year,Month,Day,Hour,Minute,Value (Times are PST for temperature in C)
2006,07,15,00,00,13.30
2006,07,15,00,01,13.30
2006,07,15,00,02,13.30
2006,07,15,00,03,13.30
2006,07,15,00,04,13.40
2006,07,15,00,05,13.40
2006,07,15,00,06,13.40
2006,07,15,00,07,13.40
2006,07,15,00,08,13.40
2006,07,15,00,09,13.40
2006,07,15,00,10,13.40
2006,07,15,00,11,13.30
2006,07,15,00,12,13.30
2006,07,15,00,13,13.30
2006,07,15,00,14,13.30
2006,07,15,00,15,13.30
2006,07,15,00,16,13.20
2006,07,15,00,17,13.20
2006,07,15,00,18,13.20
2006,07,15,00,19,13.20
2006,07,15,00,20,13.10
2006,07,15,00,21,13.10
2006,07,15,00,22,13.10
2006,07,15,00,23,13.10
2006,07,15,00,24,13.10
2006,07,15,00,25,13.10
2006,07,15,00,26,13.10
2006,07,15,00,27,13.00
2006,07,15,00,28,13.00
2006,07,15,00,29,13.00
2006,07,15,00,30,13.00
2006,07,15,00,31,13.10
2006,07,15,00,32,13.10
2006,07,15,00,33,13.00
2006,07,15,00,34,13.00
2006,07,15,00,35,13.00
2006,07,15,00,36,13.00
2006,07,15,00,37,13.00
2006,07,15,00,38,13.00
2006,07,15,00,39,13.00
2006,07,15,00,40,13.00
2006,07,15,00,41,13.00
2006,07,15,00,42,13.00
2006,07,15,00,43,13.00
2006,07,15,00,44,13.10
2006,07,15,00,45,13.10
2006,07,15,00,46,13.10
2006,07,15,00,47,13.10
2006,07,15,00,48,13.10
2006,07,15,00,49,13.10
2006,07,15,00,50,13.10
2006,07,15,00,51,13.10
2006,07,15,00,52,13.10
2006,07,15,00,53,13.10
2006,07,15,00,54,13.10
2006,07,15,00,55,13.10
2006,07,15,00,56,13.10
2006,07,15,00,57,13.10
2006,07,15,00,58,13.10
2006,07,15,00,59,13.10
2006,07,15,01,00,13.10
2006,07,15,01,01,13.10
2006,07,15,01,02,13.10
2006,07,15,01,03,13.10
2006,07,15,01,04,13.10
2006,07,15,01,05,13.10
2006,07,15,01,06,13.10
2006,07,15,01,07,13.10
2006,07,15,01,08,13.10
2006,07,15,01,09,13.10
2006,07,15,01,10,13.10
2006,07,15,01,11,13.10
2006,07,15,01,12,13.00
2006,07,15,01,13,13.00
2006,07,15,01,14,12.90
2006,07,15,01,15,12.90
2006,07,15,01,16,12.80
2006,07,15,01,17,12.80
2006,07,15,01,18,12.70
2006,07,15,01,19,12.70
2006,07,15,01,20,12.60
2006,07,15,01,21,12.60
2006,07,15,01,22,12.50
2006,07,15,01,23,12.50
2006,07,15,01,24,12.40
2006,07,15,01,25,12.30
2006,07,15,01,26,12.30
2006,07,15,01,27,12.30
2006,07,15,01,28,12.20
2006,07,15,01,29,12.20
2006,07,15,01,30,12.10
2006,07,15,01,31,12.10
2006,07,15,01,32,12.10
2006,07,15,01,33,12.10
2006,07,15,01,34,12.00
2006,07,15,01,35,12.00
2006,07,15,01,36,11.90
2006,07,15,01,37,11.90
2006,07,15,01,38,11.90
2006,07,15,01,39,11.80
2006,07,15,01,40,11.80
2006,07,15,01,41,11.80
2006,07,15,01,42,11.70
2006,07,15,01,43,11.70
2006,07,15,01,44,11.70
2006,07,15,01,45,11.70
2006,07,15,01,46,11.70
2006,07,15,01,47,11.70
2006,07,15,01,48,11.70
2006,07,15,01,49,11.80
2006,07,15,01,50,11.80
2006,07,15,01,51,11.90
2006,07,15,01,52,11.90
2006,07,15,01,53,11.90
2006,07,15,01,54,11.90
2006,07,15,01,55,12.00
2006,07,15,01,56,12.00
2006,07,15,01,57,12.00
2006,07,15,01,58,12.00
2006,07,15,01,59,12.00
2006,07,15,02,00,12.00
2006,07,15,02,01,12.00
2006,07,15,02,02,11.90
2006,07,15,02,03,11.90
2006,07,15,02,04,12.00
2006,07,15,02,05,12.00
2006,07,15,02,06,12.00
2006,07,15,02,07,12.00
2006,07,15,02,08,12.10
2006,07,15,02,09,12.10
2006,07,15,02,10,12.10
2006,07,15,02,11,12.10
2006,07,15,02,12,12.10
2006,07,15,02,13,12.10
2006,07,15,02,14,12.10
2006,07,15,02,15,12.10
2006,07,15,02,16,12.00
2006,07,15,02,17,12.00
2006,07,15,02,18,12.00
2006,07,15,02,19,12.00
2006,07,15,02,20,12.00
2006,07,15,02,21,12.00
2006,07,15,02,22,11.90
2006,07,15,02,23,11.90
2006,07,15,02,24,11.90
2006,07,15,02,25,11.90
2006,07,15,02,26,11.90
2006,07,15,02,27,11.90
2006,07,15,02,28,11.90
2006,07,15,02,29,11.90
2006,07,15,02,30,11.90
2006,07,15,02,31,11.90
2006,07,15,02,32,11.90
2006,07,15,02,33,11.90
2006,07,15,02,34,11.90
2006,07,15,02,35,11.90
2006,07,15,02,36,11.80
2006,07,15,02,37,11.80
2006,07,15,02,38,11.80
2006,07,15,02,39,11.80
2006,07,15,02,40,11.80
2006,07,15,02,41,11.80
2006,07,15,02,42,11.80
2006,07,15,02,43,11.80
2006,07,15,02,44,11.70
2006,07,15,02,45,11.70
2006,07,15,02,46,11.70
2006,07,15,02,47,11.70
2006,07,15,02,48,11.70
2006,07,15,02,49,11.60
2006,07,15,02,50,11.60
2006,07,15,02,51,11.50
2006,07,15,02,52,11.50
2006,07,15,02,53,11.40
2006,07,15,02,54,11.40
2006,07,15,02,55,11.30
2006,07,15,02,56,11.30
2006,07,15,02,57,11.30
2006,07,15,02,58,11.30
2006,07,15,02,59,11.20
2006,07,15,03,00,11.20
2006,07,15,03,01,11.20
2006,07,15,03,02,11.20
2006,07,15,03,03,11.20
2006,07,15,03,04,11.20
2006,07,15,03,05,11.20
2006,07,15,03,06,11.20
2006,07,15,03,07,11.20
2006,07,15,03,08,11.20
2006,07,15,03,09,11.20
2006,07,15,03,10,11.30
2006,07,15,03,11,11.30
2006,07,15,03,12,11.30
2006,07,15,03,13,11.30
2006,07,15,03,14,11.30
2006,07,15,03,15,11.30
2006,07,15,03,16,11.20
2006,07,15,03,17,11.20
2006,07,15,03,18,11.20
2006,07,15,03,19,11.20
2006,07,15,03,20,11.20
2006,07,15,03,21,11.20
2006,07,15,03,22,11.10
2006,07,15,03,23,11.10
2006,07,15,03,24,11.10
2006,07,15,03,25,11.10
2006,07,15,03,26,11.00
2006,07,15,03,27,11.00
2006,07,15,03,28,10.90
2006,07,15,03,29,10.90
2006,07,15,03,30,10.90
2006,07,15,03,31,10.90
2006,07,15,03,32,10.80
2006,07,15,03,33,10.80
2006,07,15,03,34,10.80
2006,07,15,03,35,10.70
2006,07,15,03,36,10.70
2006,07,15,03,37,10.60
2006,07,15,03,38,10.60
2006,07,15,03,39,10.50
2006,07,15,03,40,10.50
2006,07,15,03,41,10.40
2006,07,15,03,42,10.40
2006,07,15,03,43,10.40
2006,07,15,03,44,10.30
2006,07,15,03,45,10.30
2006,07,15,03,46,10.30
2006,07,15,03,47,10.30
2006,07,15,03,48,10.20
2006,07,15,03,49,10.20
2006,07,15,03,50,10.20
2006,07,15,03,51,10.20
2006,07,15,03,52,10.20
2006,07,15,03,53,10.10
2006,07,15,03,54,10.10
2006,07,15,03,55,10.10
2006,07,15,03,56,10.00
2006,07,15,03,57,10.00
2006,07,15,03,58,10.00
2006,07,15,03,59,9.90
2006,07,15,04,00,9.90
2006,07,15,04,01,9.90
2006,07,15,04,02,9.90
2006,07,15,04,03,9.80
2006,07,15,04,04,9.80
2006,07,15,04,05,9.80
2006,07,15,04,06,9.80
2006,07,15,04,07,9.80
2006,07,15,04,08,9.80
2006,07,15,04,09,9.80
2006,07,15,04,10,9.80
2006,07,15,04,11,9.70
2006,07,15,04,12,9.70
2006,07,15,04,13,9.70
2006,07,15,04,14,9.70
2006,07,15,04,15,9.70
2006,07,15,04,16,9.70
2006,07,15,04,17,9.70
2006,07,15,04,18,9.70
2006,07,15,04,19,9.70
2006,07,15,04,20,9.60
2006,07,15,04,21,9.60
2006,07,15,04,22,9.60
2006,07,15,04,23,9.60
2006,07,15,04,24,9.60
2006,07,15,04,25,9.60
2006,07,15,04,26,9.60
2006,07,15,04,27,9.60
2006,07,15,04,28,9.50
2006,07,15,04,29,9.50
2006,07,15,04,30,9.40
2006,07,15,04,31,9.40
2006,07,15,04,32,9.40
2006,07,15,04,33,9.40
2006,07,15,04,34,9.40
2006,07,15,04,35,9.30
2006,07,15,04,36,9.30
2006,07,15,04,37,9.30
2006,07,15,04,38,9.30
2006,07,15,04,39,9.30
2006,07,15,04,40,9.30
2006,07,15,04,41,9.20
2006,07,15,04,42,9.20
2006,07,15,04,43,9.20
2006,07,15,04,44,9.20
2006,07,15,04,45,9.20
2006,07,15,04,46,9.20
2006,07,15,04,47,9.20
2006,07,15,04,48,9.10
2006,07,15,04,49,9.10
2006,07,15,04,50,9.10
2006,07,15,04,51,9.10
2006,07,15,04,52,9.10
2006,07,15,04,53,9.10
2006,07,15,04,54,9.20
2006,07,15,04,55,9.20
2006,07,15,04,56,9.20
2006,07,15,04,57,9.20
2006,07,15,04,58,9.20
2006,07,15,04,59,9.20
2006,07,15,05,00,9.20
2006,07,15,05,01,9.20
2006,07,15,05,02,9.20
2006,07,15,05,03,9.20
2006,07,15,05,04,9.30
2006,07,15,05,05,9.30
2006,07,15,05,06,9.30
2006,07,15,05,07,9.30
2006,07,15,05,08,9.30
2006,07,15,05,09,9.30
2006,07,15,05,10,9.40
2006,07,15,05,11,9.40
2006,07,15,05,12,9.40
2006,07,15,05,13,9.40
2006,07,15,05,14,9.50
2006,07,15,05,15,9.50
2006,07,15,05,16,9.60
2006,07,15,05,17,9.60
2006,07,15,05,18,9.60
2006,07,15,05,19,9.60
2006,07,15,05,20,9.60
2006,07,15,05,21,9.60
2006,07,15,05,22,9.60
2006,07,15,05,23,9.60
2006,07,15,05,24,9.70
2006,07,15,05,25,9.70
2006,07,15,05,26,9.70
2006,07,15,05,27,9.70
2006,07,15,05,28,9.70
2006,07,15,05,29,9.70
2006,07,15,05,30,9.70
2006,07,15,05,31,9.70
2006,07,15,05,32,9.70
2006,07,15,05,33,9.70
2006,07,15,05,34,9.70
2006,07,15,05,35,9.70
2006,07,15,05,36,9.80
2006,07,15,05,37,9.70
2006,07,15,05,38,9.70
2006,07,15,05,39,9.80
2006,07,15,05,40,9.80
2006,07,15,05,41,9.80
2006,07,15,05,42,9.80
2006,07,15,05,43,9.80
2006,07,15,05,44,9.80
2006,07,15,05,45,9.80
2006,07,15,05,46,9.80
2006,07,15,05,47,9.80
2006,07,15,05,48,9.80
2006,07,15,05,49,9.80
2006,07,15,05,50,9.80
2006,07,15,05,51,9.80
2006,07,15,05,52,9.80
2006,07,15,05,53,9.80
2006,07,15,05,54,9.80
2006,07,15,05,55,9.80
2006,07,15,05,56,9.80
2006,07,15,05,57,9.80
2006,07,15,05,58,9.70
2006,07,15,05,59,9.80
2006,07,15,06,00,9.80
2006,07,15,06,01,9.80
2006,07,15,06,02,9.80
2006,07,15,06,03,9.80
2006,07,15,06,04,9.80
2006,07,15,06,05,9.80
2006,07,15,06,06,9.80
2006,07,15,06,07,9.70
2006,07,15,06,08,9.70
2006,07,15,06,09,9.70
2006,07,15,06,10,9.70
2006,07,15,06,11,9.70
2006,07,15,06,12,9.70
2006,07,15,06,13,9.70
2006,07,15,06,14,9.70
2006,07,15,06,15,9.70
2006,07,15,06,16,9.70
2006,07,15,06,17,9.70
2006,07,15,06,18,9.70
2006,07,15,06,19,9.70
2006,07,15,06,20,9.70
2006,07,15,06,21,9.70
2006,07,15,06,22,9.70
2006,07,15,06,23,9.70
2006,07,15,06,24,9.80
2006,07,15,06,25,9.80
2006,07,15,06,26,9.80
2006,07,15,06,27,9.80
2006,07,15,06,28,9.80
2006,07,15,06,29,9.80
2006,07,15,06,30,9.90
2006,07,15,06,31,9.90
2006,07,15,06,32,9.90
2006,07,15,06,33,9.90
2006,07,15,06,34,10.00
2006,07,15,06,35,10.00
2006,07,15,06,36,10.00
2006,07,15,06,37,10.10
2006,07,15,06,38,10.10
2006,07,15,06,39,10.20
2006,07,15,06,40,10.20
2006,07,15,06,41,10.20
2006,07,15,06,42,10.20
2006,07,15,06,43,10.30
2006,07,15,06,44,10.30
2006,07,15,06,45,10.30
2006,07,15,06,46,10.30
2006,07,15,06,47,10.40
2006,07,15,06,48,10.40
2006,07,15,06,49,10.50
2006,07,15,06,50,10.50
2006,07,15,06,51,10.60
2006,07,15,06,52,10.60
2006,07,15,06,53,10.60
2006,07,15,06,54,10.70
2006,07,15,06,55,10.70
2006,07,15,06,56,10.70
2006,07,15,06,57,10.70
2006,07,15,06,58,10.70
2006,07,15,06,59,10.70
2006,07,15,07,00,10.70
2006,07,15,07,01,10.70
2006,07,15,07,02,10.70
2006,07,15,07,03,10.80
2006,07,15,07,04,10.80
2006,07,15,07,05,10.90
2006,07,15,07,06,10.90
2006,07,15,07,07,11.00
2006,07,15,07,08,11.10
2006,07,15,07,09,11.10
2006,07,15,07,10,11.20
2006,07,15,07,11,11.30
2006,07,15,07,12,11.30
2006,07,15,07,13,11.40
2006,07,15,07,14,11.50
2006,07,15,07,15,11.60
2006,07,15,07,16,11.60
2006,07,15,07,17,11.70
2006,07,15,07,18,11.80
2006,07,15,07,19,11.80
2006,07,15,07,20,11.90
2006,07,15,07,21,11.90
2006,07,15,07,22,12.00
2006,07,15,07,23,12.10
2006,07,15,07,24,12.10
2006,07,15,07,25,12.20
2006,07,15,07,26,12.20
2006,07,15,07,27,12.20
2006,07,15,07,28,12.30
2006,07,15,07,29,12.30
2006,07,15,07,30,12.40
2006,07,15,07,31,12.40
2006,07,15,07,32,12.40
2006,07,15,07,33,12.40
2006,07,15,07,34,12.50
2006,07,15,07,35,12.50
2006,07,15,07,36,12.50
2006,07,15,07,37,12.60
2006,07,15,07,38,12.60
2006,07,15,07,39,12.60
2006,07,15,07,40,12.70
2006,07,15,07,41,12.70
2006,07,15,07,42,12.70
2006,07,15,07,43,12.80
2006,07,15,07,44,12.80
2006,07,15,07,45,12.80
2006,07,15,07,46,12.90
2006,07,15,07,47,12.90
2006,07,15,07,48,12.90
2006,07,15,07,49,13.00
2006,07,15,07,50,13.00
2006,07,15,07,51,13.00
2006,07,15,07,52,13.00
2006,07,15,07,53,13.10
2006,07,15,07,54,13.10
2006,07,15,07,55,13.10
2006,07,15,07,56,13.10
2006,07,15,07,57,13.20
2006,07,15,07,58,13.20
2006,07,15,07,59,13.30
2006,07,15,08,00,13.30
2006,07,15,08,01,13.30
2006,07,15,08,02,13.30
2006,07,15,08,03,13.30
2006,07,15,08,04,13.30
2006,07,15,08,05,13.30
2006,07,15,08,06,13.30
2006,07,15,08,07,13.30
2006,07,15,08,08,13.40
2006,07,15,08,09,13.40
2006,07,15,08,10,13.40
2006,07,15,08,11,13.40
2006,07,15,08,12,13.50
2006,07,15,08,13,13.50
2006,07,15,08,14,13.50
2006,07,15,08,15,13.60
2006,07,15,08,16,13.70
2006,07,15,08,17,13.70
2006,07,15,08,18,13.70
2006,07,15,08,19,13.80
2006,07,15,08,20,13.80
2006,07,15,08,21,13.80
2006,07,15,08,22,13.80
2006,07,15,08,23,13.80
2006,07,15,08,24,13.90
2006,07,15,08,25,13.90
2006,07,15,08,26,14.00
2006,07,15,08,27,14.10
2006,07,15,08,28,14.20
2006,07,15,08,29,14.20
2006,07,15,08,30,14.10
2006,07,15,08,31,14.10
2006,07,15,08,32,14.10
2006,07,15,08,33,14.10
2006,07,15,08,34,14.20
2006,07,15,08,35,14.30
2006,07,15,08,36,14.30
2006,07,15,08,37,14.30
2006,07,15,08,38,14.30
2006,07,15,08,39,14.30
2006,07,15,08,40,14.30
2006,07,15,08,41,14.40
2006,07,15,08,42,14.50
2006,07,15,08,43,14.50
2006,07,15,08,44,14.60
2006,07,15,08,45,14.60
2006,07,15,08,46,14.60
2006,07,15,08,47,14.60
2006,07,15,08,48,14.60
2006,07,15,08,49,14.60
2006,07,15,08,50,14.70
2006,07,15,08,51,14.70
2006,07,15,08,52,14.70
2006,07,15,08,53,14.80
2006,07,15,08,54,14.80
2006,07,15,08,55,14.80
2006,07,15,08,56,14.90
2006,07,15,08,57,14.90
2006,07,15,08,58,14.90
2006,07,15,08,59,14.90
2006,07,15,09,00,15.00
2006,07,15,09,01,15.00
2006,07,15,09,02,15.00
2006,07,15,09,03,15.00
2006,07,15,09,04,15.00
2006,07,15,09,05,15.00
2006,07,15,09,06,15.00
2006,07,15,09,07,15.10
2006,07,15,09,08,15.20
2006,07,15,09,09,15.20
2006,07,15,09,10,15.30
2006,07,15,09,11,15.30
2006,07,15,09,12,15.30
2006,07,15,09,13,15.30
2006,07,15,09,14,15.30
2006,07,15,09,15,15.30
2006,07,15,09,16,15.40
2006,07,15,09,17,15.30
2006,07,15,09,18,15.30
2006,07,15,09,19,15.30
2006,07,15,09,20,15.30
2006,07,15,09,21,15.30
2006,07,15,09,22,15.30
2006,07,15,09,23,15.30
2006,07,15,09,24,15.40
2006,07,15,09,25,15.40
2006,07,15,09,26,15.40
2006,07,15,09,27,15.50
2006,07,15,09,28,15.60
2006,07,15,09,29,15.60
2006,07,15,09,30,15.80
2006,07,15,09,31,15.90
2006,07,15,09,32,15.90
2006,07,15,09,33,16.00
2006,07,15,09,34,16.10
2006,07,15,09,35,16.10
2006,07,15,09,36,16.10
2006,07,15,09,37,16.10
2006,07,15,09,38,16.10
2006,07,15,09,39,16.20
2006,07,15,09,40,16.20
2006,07,15,09,41,16.30
2006,07,15,09,42,16.30
2006,07,15,09,43,16.30
2006,07,15,09,44,16.40
2006,07,15,09,45,16.50
2006,07,15,09,46,16.50
2006,07,15,09,47,16.40
2006,07,15,09,48,16.40
2006,07,15,09,49,16.40
2006,07,15,09,50,16.50
2006,07,15,09,51,16.60
2006,07,15,09,52,16.70
2006,07,15,09,53,16.80
2006,07,15,09,54,16.90
2006,07,15,09,55,17.00
2006,07,15,09,56,17.00
2006,07,15,09,57,17.00
2006,07,15,09,58,16.90
2006,07,15,09,59,16.90
2006,07,15,10,00,16.90
2006,07,15,10,01,17.00
2006,07,15,10,02,17.10
2006,07,15,10,03,17.20
2006,07,15,10,04,17.30
2006,07,15,10,05,17.30
2006,07,15,10,06,17.40
2006,07,15,10,07,17.40
2006,07,15,10,08,17.40
2006,07,15,10,09,17.50
2006,07,15,10,10,17.50
2006,07,15,10,11,17.60
2006,07,15,10,12,17.70
2006,07,15,10,13,17.70
2006,07,15,10,14,17.70
2006,07,15,10,15,17.80
2006,07,15,10,16,17.80
2006,07,15,10,17,17.80
2006,07,15,10,18,17.70
2006,07,15,10,19,17.70
2006,07,15,10,20,17.70
2006,07,15,10,21,17.70
2006,07,15,10,22,17.80
2006,07,15,10,23,17.70
2006,07,15,10,24,17.60
2006,07,15,10,25,17.50
2006,07,15,10,26,17.40
2006,07,15,10,27,17.40
2006,07,15,10,28,17.40
2006,07,15,10,29,17.50
2006,07,15,10,30,17.50
2006,07,15,10,31,17.50
2006,07,15,10,32,17.50
2006,07,15,10,33,17.50
2006,07,15,10,34,17.50
2006,07,15,10,35,17.60
2006,07,15,10,36,17.60
2006,07,15,10,37,17.70
2006,07,15,10,38,17.70
2006,07,15,10,39,17.80
2006,07,15,10,40,17.70
2006,07,15,10,41,17.70
2006,07,15,10,42,17.60
2006,07,15,10,43,17.50
2006,07,15,10,44,17.60
2006,07,15,10,45,17.60
2006,07,15,10,46,17.60
2006,07,15,10,47,17.50
2006,07,15,10,48,17.50
2006,07,15,10,49,17.50
2006,07,15,10,50,17.50
2006,07,15,10,51,17.60
2006,07,15,10,52,17.70
2006,07,15,10,53,17.80
2006,07,15,10,54,17.90
2006,07,15,10,55,18.20
2006,07,15,10,56,18.40
2006,07,15,10,57,18.60
2006,07,15,10,58,18.70
2006,07,15,10,59,18.90
2006,07,15,11,00,19.00
2006,07,15,11,01,19.10
2006,07,15,11,02,19.10
2006,07,15,11,03,19.10
2006,07,15,11,04,19.10
2006,07,15,11,05,19.00
2006,07,15,11,06,19.00
2006,07,15,11,07,19.10
2006,07,15,11,08,19.10
2006,07,15,11,09,19.20
2006,07,15,11,10,19.30
2006,07,15,11,11,19.40
2006,07,15,11,12,19.40
2006,07,15,11,13,19.40
2006,07,15,11,14,19.40
2006,07,15,11,15,19.30
2006,07,15,11,16,19.20
2006,07,15,11,17,19.00
2006,07,15,11,18,18.90
2006,07,15,11,19,19.00
2006,07,15,11,20,19.10
2006,07,15,11,21,19.20
2006,07,15,11,22,19.30
2006,07,15,11,23,19.40
2006,07,15,11,24,19.40
2006,07,15,11,25,19.30
2006,07,15,11,26,19.20
2006,07,15,11,27,19.00
2006,07,15,11,28,18.90
2006,07,15,11,29,18.80
2006,07,15,11,30,18.80
2006,07,15,11,31,18.80
2006,07,15,11,32,18.90
2006,07,15,11,33,18.90
2006,07,15,11,34,19.10
2006,07,15,11,35,19.20
2006,07,15,11,36,19.40
2006,07,15,11,37,19.40
2006,07,15,11,38,19.30
2006,07,15,11,39,19.20
2006,07,15,11,40,19.10
2006,07,15,11,41,19.10
2006,07,15,11,42,19.00
2006,07,15,11,43,19.00
2006,07,15,11,44,19.10
2006,07,15,11,45,19.00
2006,07,15,11,46,18.90
2006,07,15,11,47,18.90
2006,07,15,11,48,18.90
2006,07,15,11,49,18.90
2006,07,15,11,50,18.90
2006,07,15,11,51,18.90
2006,07,15,11,52,19.00
2006,07,15,11,53,19.10
2006,07,15,11,54,19.20
2006,07,15,11,55,19.30
2006,07,15,11,56,19.30
2006,07,15,11,57,19.30
2006,07,15,11,58,19.40
2006,07,15,11,59,19.50
2006,07,15,12,00,19.50
2006,07,15,12,01,19.60
2006,07,15,12,02,19.60
2006,07,15,12,03,19.60
2006,07,15,12,04,19.60
2006,07,15,12,05,19.60
2006,07,15,12,06,19.50
2006,07,15,12,07,19.50
2006,07,15,12,08,19.60
2006,07,15,12,09,19.60
2006,07,15,12,10,19.70
2006,07,15,12,11,19.70
2006,07,15,12,12,19.70
2006,07,15,12,13,19.60
2006,07,15,12,14,19.60
2006,07,15,12,15,19.70
2006,07,15,12,16,19.80
2006,07,15,12,17,19.80
2006,07,15,12,18,19.80
2006,07,15,12,19,19.80
2006,07,15,12,20,19.70
2006,07,15,12,21,19.70
2006,07,15,12,22,19.70
2006,07,15,12,23,19.70
2006,07,15,12,24,19.70
2006,07,15,12,25,19.70
2006,07,15,12,26,19.70
2006,07,15,12,27,19.60
2006,07,15,12,28,19.60
2006,07,15,12,29,19.70
2006,07,15,12,30,19.70
2006,07,15,12,31,19.80
2006,07,15,12,32,19.80
2006,07,15,12,33,19.90
2006,07,15,12,34,20.00
2006,07,15,12,35,20.10
2006,07,15,12,36,20.20
2006,07,15,12,37,20.20
2006,07,15,12,38,20.00
2006,07,15,12,39,19.90
2006,07,15,12,40,20.00
2006,07,15,12,41,20.00
2006,07,15,12,42,20.00
2006,07,15,12,43,20.00
2006,07,15,12,44,19.90
2006,07,15,12,45,19.90
2006,07,15,12,46,20.00
2006,07,15,12,47,20.10
2006,07,15,12,48,20.20
2006,07,15,12,49,20.30
2006,07,15,12,50,20.40
2006,07,15,12,51,20.50
2006,07,15,12,52,20.60
2006,07,15,12,53,20.70
2006,07,15,12,54,20.70
2006,07,15,12,55,20.60
2006,07,15,12,56,20.60
2006,07,15,12,57,20.60
2006,07,15,12,58,20.70
2006,07,15,12,59,20.70
2006,07,15,13,00,20.70
2006,07,15,13,01,20.60
2006,07,15,13,02,20.70
2006,07,15,13,03,20.60
2006,07,15,13,04,20.60
2006,07,15,13,05,20.50
2006,07,15,13,06,20.40
2006,07,15,13,07,20.40
2006,07,15,13,08,20.50
2006,07,15,13,09,20.50
2006,07,15,13,10,20.60
2006,07,15,13,11,20.60
2006,07,15,13,12,20.60
2006,07,15,13,13,20.60
2006,07,15,13,14,20.50
2006,07,15,13,15,20.40
2006,07,15,13,16,20.40
2006,07,15,13,17,20.40
2006,07,15,13,18,20.40
2006,07,15,13,19,20.40
2006,07,15,13,20,20.40
2006,07,15,13,21,20.40
2006,07,15,13,22,20.30
2006,07,15,13,23,20.20
2006,07,15,13,24,20.20
2006,07,15,13,25,20.10
2006,07,15,13,26,20.10
2006,07,15,13,27,20.10
2006,07,15,13,28,20.10
2006,07,15,13,29,20.10
2006,07,15,13,30,20.30
2006,07,15,13,31,20.40
2006,07,15,13,32,20.60
2006,07,15,13,33,20.60
2006,07,15,13,34,20.60
2006,07,15,13,35,20.50
2006,07,15,13,36,20.60
2006,07,15,13,37,20.50
2006,07,15,13,38,20.40
2006,07,15,13,39,20.40
2006,07,15,13,40,20.40
2006,07,15,13,41,20.50
2006,07,15,13,42,20.60
2006,07,15,13,43,20.70
2006,07,15,13,44,20.60
2006,07,15,13,45,20.60
2006,07,15,13,46,20.50
2006,07,15,13,47,20.30
2006,07,15,13,48,20.30
2006,07,15,13,49,20.40
2006,07,15,13,50,20.50
2006,07,15,13,51,20.50
2006,07,15,13,52,20.60
2006,07,15,13,53,20.70
2006,07,15,13,54,20.80
2006,07,15,13,55,20.80
2006,07,15,13,56,20.80
2006,07,15,13,57,20.90
2006,07,15,13,58,21.00
2006,07,15,13,59,21.00
2006,07,15,14,00,21.10
2006,07,15,14,01,21.20
2006,07,15,14,02,21.30
2006,07,15,14,03,21.30
2006,07,15,14,04,21.40
2006,07,15,14,05,21.50
2006,07,15,14,06,21.50
2006,07,15,14,07,21.50
2006,07,15,14,08,21.40
2006,07,15,14,09,21.40
2006,07,15,14,10,21.40
2006,07,15,14,11,21.30
2006,07,15,14,12,21.30
2006,07,15,14,13,21.40
2006,07,15,14,14,21.50
2006,07,15,14,15,21.50
2006,07,15,14,16,21.60
2006,07,15,14,17,21.60
2006,07,15,14,18,21.50
2006,07,15,14,19,21.40
2006,07,15,14,20,21.50
2006,07,15,14,21,21.50
2006,07,15,14,22,21.50
2006,07,15,14,23,21.40
2006,07,15,14,24,21.30
2006,07,15,14,25,21.30
2006,07,15,14,26,21.30
2006,07,15,14,27,21.40
2006,07,15,14,28,21.40
2006,07,15,14,29,21.40
2006,07,15,14,30,21.40
2006,07,15,14,31,21.30
2006,07,15,14,32,21.30
2006,07,15,14,33,21.30
2006,07,15,14,34,21.30
2006,07,15,14,35,21.30
2006,07,15,14,36,21.30
2006,07,15,14,37,21.40
2006,07,15,14,38,21.60
2006,07,15,14,39,21.70
2006,07,15,14,40,21.80
2006,07,15,14,41,21.80
2006,07,15,14,42,21.90
2006,07,15,14,43,22.00
2006,07,15,14,44,22.20
2006,07,15,14,45,22.30
2006,07,15,14,46,22.20
2006,07,15,14,47,22.00
2006,07,15,14,48,21.90
2006,07,15,14,49,21.80
2006,07,15,14,50,21.80
2006,07,15,14,51,21.70
2006,07,15,14,52,21.60
2006,07,15,14,53,21.60
2006,07,15,14,54,21.70
2006,07,15,14,55,21.70
2006,07,15,14,56,21.80
2006,07,15,14,57,21.80
2006,07,15,14,58,21.70
2006,07,15,14,59,21.70
2006,07,15,15,00,21.70
2006,07,15,15,01,21.70
2006,07,15,15,02,21.70
2006,07,15,15,03,21.80
2006,07,15,15,04,21.90
2006,07,15,15,05,22.00
2006,07,15,15,06,22.10
2006,07,15,15,07,22.00
2006,07,15,15,08,22.00
2006,07,15,15,09,22.00
2006,07,15,15,10,22.00
2006,07,15,15,11,21.80
2006,07,15,15,12,21.80
2006,07,15,15,13,21.80
2006,07,15,15,14,21.90
2006,07,15,15,15,21.80
2006,07,15,15,16,21.80
2006,07,15,15,17,21.60
2006,07,15,15,18,21.40
2006,07,15,15,19,21.40
2006,07,15,15,20,21.50
2006,07,15,15,21,21.70
2006,07,15,15,22,21.80
2006,07,15,15,23,21.80
2006,07,15,15,24,21.90
2006,07,15,15,25,22.10
2006,07,15,15,26,22.10
2006,07,15,15,27,22.10
2006,07,15,15,28,22.20
2006,07,15,15,29,22.20
2006,07,15,15,30,22.20
2006,07,15,15,31,22.20
2006,07,15,15,32,22.00
2006,07,15,15,33,21.90
2006,07,15,15,34,21.90
2006,07,15,15,35,21.80
2006,07,15,15,36,21.70
2006,07,15,15,37,21.70
2006,07,15,15,38,21.80
2006,07,15,15,39,21.70
2006,07,15,15,40,21.80
2006,07,15,15,41,21.80
2006,07,15,15,42,21.90
2006,07,15,15,43,21.90
2006,07,15,15,44,21.90
2006,07,15,15,45,21.90
2006,07,15,15,46,21.80
2006,07,15,15,47,21.70
2006,07,15,15,48,21.70
2006,07,15,15,49,21.80
2006,07,15,15,50,21.90
2006,07,15,15,51,21.90
2006,07,15,15,52,21.90
2006,07,15,15,53,22.00
2006,07,15,15,54,22.10
2006,07,15,15,55,22.20
2006,07,15,15,56,22.30
2006,07,15,15,57,22.50
2006,07,15,15,58,22.60
2006,07,15,15,59,22.70
2006,07,15,16,00,22.80
2006,07,15,16,01,22.90
2006,07,15,16,02,22.90
2006,07,15,16,03,22.70
2006,07,15,16,04,22.50
2006,07,15,16,05,22.50
2006,07,15,16,06,22.40
2006,07,15,16,07,22.30
2006,07,15,16,08,22.30
2006,07,15,16,09,22.30
2006,07,15,16,10,22.40
2006,07,15,16,11,22.50
2006,07,15,16,12,22.50
2006,07,15,16,13,22.40
2006,07,15,16,14,22.30
2006,07,15,16,15,22.20
2006,07,15,16,16,22.10
2006,07,15,16,17,22.10
2006,07,15,16,18,22.10
2006,07,15,16,19,22.10
2006,07,15,16,20,22.00
2006,07,15,16,21,21.90
2006,07,15,16,22,21.90
2006,07,15,16,23,22.00
2006,07,15,16,24,22.20
2006,07,15,16,25,22.30
2006,07,15,16,26,22.40
2006,07,15,16,27,22.50
2006,07,15,16,28,22.50
2006,07,15,16,29,22.40
2006,07,15,16,30,22.40
2006,07,15,16,31,22.20
2006,07,15,16,32,22.00
2006,07,15,16,33,21.90
2006,07,15,16,34,22.00
2006,07,15,16,35,22.00
2006,07,15,16,36,22.10
2006,07,15,16,37,22.10
2006,07,15,16,38,22.10
2006,07,15,16,39,22.20
2006,07,15,16,40,22.20
2006,07,15,16,41,22.30
2006,07,15,16,42,22.30
2006,07,15,16,43,22.30
2006,07,15,16,44,22.40
2006,07,15,16,45,22.40
2006,07,15,16,46,22.40
2006,07,15,16,47,22.30
2006,07,15,16,48,22.20
2006,07,15,16,49,22.10
2006,07,15,16,50,22.10
2006,07,15,16,51,22.10
2006,07,15,16,52,22.20
2006,07,15,16,53,22.30
2006,07,15,16,54,22.30
2006,07,15,16,55,22.30
2006,07,15,16,56,22.30
2006,07,15,16,57,22.20
2006,07,15,16,58,22.20
2006,07,15,16,59,22.10
2006,07,15,17,00,22.00
2006,07,15,17,01,22.00
2006,07,15,17,02,22.00
2006,07,15,17,03,22.00
2006,07,15,17,04,22.10
2006,07,15,17,05,22.00
2006,07,15,17,06,21.90
2006,07,15,17,07,21.80
2006,07,15,17,08,21.90
2006,07,15,17,09,21.90
2006,07,15,17,10,21.90
2006,07,15,17,11,21.90
2006,07,15,17,12,21.80
2006,07,15,17,13,21.80
2006,07,15,17,14,21.70
2006,07,15,17,15,21.70
2006,07,15,17,16,21.80
2006,07,15,17,17,21.90
2006,07,15,17,18,22.00
2006,07,15,17,19,22.00
2006,07,15,17,20,22.00
2006,07,15,17,21,21.90
2006,07,15,17,22,21.90
2006,07,15,17,23,21.90
2006,07,15,17,24,21.90
2006,07,15,17,25,21.90
2006,07,15,17,26,21.80